Regional Weather Roundup
Issued by NWS Charleston, WV

Home | Current Version | Previous Version | Graphics & Text | Print | Product List | Glossary On
Versions: 1 2 3 4 5 6 7 8 9 10 11 12 13 14 15 16 17 18 19 20 21 22 23 24 25 26 27 28 29 30 31 32 33 34 35 36 37 38 39 40 41 42 43 44 45 46 47 48 49 50
497
ASUS41 KRLX 251110
RWRRLX
West Virginia Regional Weather Roundup
National Weather Service Charleston WV
700 AM EDT WED APR 25 2018

Note: "fair" indicates few or no clouds below 12,000 feet with no
significant weather and/or obstructions to visibility.

WVZ003-251200-
Northern Panhandle of West Virginia

CITY           SKY/WX    TMP DP  RH WIND       PRES   REMARKS
WHEELING       CLOUDY    49  47  93 E6        29.82F
$$

WVZ009-251200-
Northwest West Virginia

CITY           SKY/WX    TMP DP  RH WIND       PRES   REMARKS
PARKERSBURG    CLOUDY    51  49  92 CALM      29.85S
$$

WVZ006-251200-
Western West Virginia

CITY           SKY/WX    TMP DP  RH WIND       PRES   REMARKS
HUNTINGTON     CLOUDY    54  52  93 NW3       29.84R FOG
$$

WVZ015-251200-
West Central West Virginia

CITY           SKY/WX    TMP DP  RH WIND       PRES   REMARKS
CHARLESTON     FOG       53  53 100 CALM      29.83R VSB 1
$$

WVZ022-031-251200-
North Central West Virginia

CITY           SKY/WX    TMP DP  RH WIND       PRES   REMARKS
CLARKSBURG     CLOUDY    51  47  86 CALM      29.82R
MORGANTOWN     CLOUDY    51  47  86 CALM      29.83S
$$

WVZ025-035-042-045-251200-
Southern West Virginia

CITY           SKY/WX    TMP DP  RH WIND       PRES   REMARKS
BECKLEY        CLOUDY    50  49  96 NW3       29.82S FOG
LOGAN          FOG       52  52 100 CALM      29.84R VSB 3/4
BLUEFIELD      LGT RAIN  48  47  96 CALM      29.83R FOG
LEWISBURG      LGT RAIN  50  49  97 CALM      29.82R
$$

WVZ047-251200-
Northern Mountains of West Virginia

CITY           SKY/WX    TMP DP  RH WIND       PRES   REMARKS
ELKINS         LGT RAIN  49  47  93 CALM      29.84R
$$

WVZ052-251200-
Eastern Panhandle of West Virginia

CITY           SKY/WX    TMP DP  RH WIND       PRES   REMARKS
MARTINSBURG    CLOUDY    51  50  96 N7        29.82F
PETERSBURG     DRIZZLE   50  49  96 CALM      29.84S
$$




USA.gov is the U.S. government's official web portal to all federal, state and local government web resources and services.